This is the latest recevied weather packets stored in our database for station/object KE8WAY. If no packets are shown the sender has not sent any weather packets the latest 10 day(s).
| Time | Temp. | Humidity | Pressure | Rain* | Wind** | Luminosity | Snow |
|---|---|---|---|---|---|---|---|
| 1778066635 | 7.22° C | 86% | 1009.5 hPa | 0 mm | - | 36 W/m² | - |
| 1778066332 | 7.22° C | 88% | 1009.4 hPa | 0 mm | - | 24 W/m² | - |
| 1778066031 | 7.22° C | 88% | 1009.4 hPa | 0 mm | - | 16 W/m² | - |
| 1778065728 | 7.22° C | 87% | 1009.3 hPa | 0 mm | - | 13 W/m² | - |
| 1778065425 | 7.22° C | 86% | 1008.9 hPa | 0 mm | - | 12 W/m² | - |
| 1778065122 | 7.22° C | 87% | 1009 hPa | 0 mm | - | 4 W/m² | - |
| 1778064818 | 7.22° C | 88% | 1008.8 hPa | 0 mm | - | 4 W/m² | - |
| 1778064516 | 7.22° C | 87% | 1008.5 hPa | 0 mm | - | 4 W/m² | - |
| 1778064213 | 7.22° C | 87% | 1008.5 hPa | 0 mm | - | 2 W/m² | - |
| 1778063911 | 7.22° C | 88% | 1008.5 hPa | 0 mm | - | 1 W/m² | - |
| 1778063608 | 7.22° C | 87% | 1008.2 hPa | 0 mm | - | 0 W/m² | - |
| 1778063305 | 7.22° C | 88% | 1008.3 hPa | 0 mm | - | 0 W/m² | - |
| 1778063003 | 7.22° C | 90% | 1008.4 hPa | 0 mm | - | 0 W/m² | - |
| 1778062700 | 7.22° C | 90% | 1008.5 hPa | 0 mm | - | 0 W/m² | - |
| 1778062396 | 7.22° C | 90% | 1008.5 hPa | 0 mm | - | 0 W/m² | - |
| 1778062095 | 7.22° C | 90% | 1008.7 hPa | 0 mm | - | 0 W/m² | - |
| 1778061792 | 7.22° C | 91% | 1008.4 hPa | 0 mm | - | 0 W/m² | - |
| 1778061490 | 7.22° C | 90% | 1008.3 hPa | 0 mm | - | 0 W/m² | - |
| 1778061187 | 7.22° C | 91% | 1008.3 hPa | 0 mm | - | 0 W/m² | - |
| 1778060884 | 7.22° C | 90% | 1008.4 hPa | 0 mm | - | 0 W/m² | - |
| 1778060582 | 7.22° C | 91% | 1008.1 hPa | 0 mm | - | 0 W/m² | - |
| 1778060280 | 7.22° C | 90% | 1008 hPa | 0 mm | - | 0 W/m² | - |
| 1778059977 | 7.22° C | 90% | 1007.8 hPa | 0 mm | - | 0 W/m² | - |
| 1778059675 | 7.22° C | 90% | 1008 hPa | 0 mm | - | 0 W/m² | - |
| 1778059372 | 7.22° C | 91% | 1008 hPa | 0 mm | - | 0 W/m² | - |
* Rain latest hour (hover to see other rain measurements)
** Current wind speed in m/s (hover to see current wind gust speed)